Home   Weather   Masaya   Past weeks

Flag for Nicaragua Past Weather in Masaya, Nicaragua — Yesterday and Last 2 Weeks

Now
90 °F

Passing clouds.


Feels Like: 90 °F
Forecast: N/A
Wind: 12 mph from Southeast

Location: Managua A. C. Sandino

Current Time: Jan 24, 2017 at 5:32:48 pm

Latest Report: Jan 24, 2017 at 4:00 pm


Visibility: N/A

Pressure: 29.80 "Hg

Humidity: 41%

Dew Point: 63 °F

Location of MasayaLocation

Past Weather in Masaya — Graph

°F

Masaya Temperature Yesterday

Maximum temperature yesterday: 91 °F (at 3:00 pm)
Minimum temperature yesterday: 64 °F (at 4:00 am)
Average temperature yesterday: 78 °F

High & Low Weather Summary for the Past Weeks

 TemperatureHumidityPressure
High91 °F (Jan 23, 3:00 pm)94% (Jan 20, 5:00 am)30.01 "Hg (Jan 20, 5:00 am)
Low64 °F (Jan 23, 4:00 am)36% (Jan 10, 1:00 pm)29.77 "Hg (Jan 17, 9:00 pm)
Average79 °F67%29.89 "Hg
* Reported Jan 9 4:00 pm — Jan 24 4:00 pm, Masaya, Weather by CustomWeather, © 2017

Note: Actual official high and low records may vary slightly from our data, if they occured in-between our weather recording intervals... More about our weather records

Advertising

Masaya Weather History for the Previous 24 Hours

Scroll right to see more
 ConditionsComfort  
Time TempWeatherWind HumidityBarometerVisibility
4:00 pm
Tue, Jan 24
90 °FPassing clouds.12 mph41%29.80 "HgN/A
3:00 pm90 °FPassing clouds.14 mph41%29.80 "HgN/A
2:00 pm90 °FPassing clouds.12 mph43%29.83 "HgN/A
12:00 pm90 °FPassing clouds.9 mph49%29.89 "HgN/A
11:00 am86 °FScattered clouds.14 mph59%29.92 "Hg6 mi
10:00 am86 °FScattered clouds.12 mph59%29.95 "Hg6 mi
9:00 am82 °FPassing clouds.12 mph62%29.95 "Hg6 mi
8:00 am81 °FPassing clouds.9 mph70%29.95 "Hg4 mi
7:00 am73 °FPassing clouds.5 mph89%29.92 "Hg3 mi
6:00 am72 °FPassing clouds.5 mph83%29.89 "HgN/A
5:00 am73 °FPassing clouds.No wind78%29.89 "HgN/A
4:00 am70 °FPassing clouds.No wind88%29.86 "HgN/A
3:00 am70 °FPassing clouds.No wind78%29.86 "HgN/A
2:00 am73 °FPassing clouds.No wind83%29.89 "HgN/A
1:00 am73 °FPassing clouds.5 mph89%29.89 "HgN/A
12:00 am75 °FPassing clouds.5 mph83%29.89 "HgN/A
11:00 pm
Mon, Jan 23
75 °FPassing clouds.No wind89%29.92 "HgN/A
10:00 pm77 °FPassing clouds.5 mph83%29.89 "HgN/A
9:00 pm79 °FPassing clouds.5 mph79%29.89 "HgN/A
8:00 pm81 °FPassing clouds.5 mph74%29.86 "HgN/A
7:00 pm82 °FPassing clouds.5 mph70%29.83 "HgN/A
6:00 pm86 °FPassing clouds.7 mph62%29.83 "Hg6 mi
5:00 pm88 °FScattered clouds.7 mph55%29.80 "Hg6 mi
Weather by CustomWeather, © 2017

See weather overviewHow to use our weather pages